Time,TemperatureF,DewpointF,PressureIn,WindDirection,WindDirectionDegrees,WindSpeedMPH,WindSpeedGustMPH,Humidity,HourlyPrecipIn,Conditions,Clouds,dailyrainin,SoftwareType,DateUTC
2013-06-19 00:00:00,77.2,63.6,29.99,NE,34,3.0,6.0,63,0.00,,,0.00,VWS V14.01,2013-06-18 22:00:00,
2013-06-19 00:05:00,77.5,63.5,29.98,NE,34,5.0,6.0,62,0.00,,,0.00,VWS V14.01,2013-06-18 22:05:00,
2013-06-19 00:10:00,78.1,63.1,29.98,NE,38,4.0,6.0,60,0.00,,,0.00,VWS V14.01,2013-06-18 22:10:00,
2013-06-19 00:15:00,77.6,63.1,29.98,NE,38,3.0,4.0,61,0.00,,,0.00,VWS V14.01,2013-06-18 22:15:00,
2013-06-19 00:20:00,76.8,63.3,29.98,NE,38,3.0,4.0,63,0.00,,,0.00,VWS V14.01,2013-06-18 22:20:00,
2013-06-19 00:25:00,76.6,63.1,29.98,NE,38,2.0,3.0,63,0.00,,,0.00,VWS V14.01,2013-06-18 22:25:00,
2013-06-19 00:30:00,76.9,63.4,29.98,NE,38,0.0,3.0,63,0.00,,,0.00,VWS V14.01,2013-06-18 22:30:00,
2013-06-19 00:35:00,77.0,63.5,29.98,NE,38,0.0,0.0,63,0.00,,,0.00,VWS V14.01,2013-06-18 22:35:00,
2013-06-19 00:40:00,77.2,62.7,29.98,NE,38,3.0,3.0,61,0.00,,,0.00,VWS V14.01,2013-06-18 22:40:00,
2013-06-19 00:45:00,76.9,62.4,29.98,NE,38,4.0,4.0,61,0.00,,,0.00,VWS V14.01,2013-06-18 22:45:00,
2013-06-19 00:50:00,77.0,62.5,29.98,NNE,24,5.0,7.0,61,0.00,,,0.00,VWS V14.01,2013-06-18 22:50:00,
2013-06-19 00:55:00,77.1,62.6,29.98,NNE,26,4.0,4.0,61,0.00,,,0.00,VWS V14.01,2013-06-18 22:55:00,
2013-06-19 01:00:00,77.7,63.2,29.98,NE,34,5.0,6.0,61,0.00,,,0.00,VWS V14.01,2013-06-18 23:00:00,
2013-06-19 01:05:00,77.6,63.1,29.98,NE,35,4.0,6.0,61,0.00,,,0.00,VWS V14.01,2013-06-18 23:05:00,
2013-06-19 01:10:00,77.5,62.5,29.97,NE,35,3.0,6.0,60,0.00,,,0.00,VWS V14.01,2013-06-18 23:10:00,
2013-06-19 01:15:00,77.8,62.8,29.97,NE,42,5.0,7.0,60,0.00,,,0.00,VWS V14.01,2013-06-18 23:15:00,
2013-06-19 01:20:00,77.9,63.4,29.97,NE,42,3.0,7.0,61,0.00,,,0.00,VWS V14.01,2013-06-18 23:20:00,
2013-06-19 01:25:00,77.7,63.2,29.97,NE,42,3.0,4.0,61,0.00,,,0.00,VWS V14.01,2013-06-18 23:25:00,
2013-06-19 01:30:00,77.0,63.0,29.97,NE,42,2.0,4.0,62,0.00,,,0.00,VWS V14.01,2013-06-18 23:30:00,
2013-06-19 01:35:00,76.2,63.6,29.97,NE,42,3.0,5.0,65,0.00,,,0.00,VWS V14.01,2013-06-18 23:35:00,
2013-06-19 01:40:00,76.1,63.5,29.97,NE,42,3.0,5.0,65,0.00,,,0.00,VWS V14.01,2013-06-18 23:40:00,
2013-06-19 01:45:00,76.2,63.6,29.97,NE,42,4.0,4.0,65,0.00,,,0.00,VWS V14.01,2013-06-18 23:45:00,
2013-06-19 01:50:00,76.6,62.6,29.97,NE,42,3.0,4.0,62,0.00,,,0.00,VWS V14.01,2013-06-18 23:50:00,
2013-06-19 01:55:00,77.2,62.2,29.97,NE,42,3.0,4.0,60,0.00,,,0.00,VWS V14.01,2013-06-18 23:55:00,
2013-06-19 02:00:00,78.1,62.1,29.97,NE,42,5.0,5.0,58,0.00,,,0.00,VWS V14.01,2013-06-19 00:00:00,
2013-06-19 02:05:00,78.4,61.9,29.97,NE,42,2.0,4.0,57,0.00,,,0.00,VWS V14.01,2013-06-19 00:05:00,
2013-06-19 02:10:00,78.1,61.6,29.97,NE,42,3.0,4.0,57,0.00,,,0.00,VWS V14.01,2013-06-19 00:10:00,
2013-06-19 02:15:00,79.0,61.0,29.97,NE,42,3.0,4.0,54,0.00,,,0.00,VWS V14.01,2013-06-19 00:15:00,
2013-06-19 02:20:00,79.3,59.6,29.97,NE,42,2.0,4.0,51,0.00,,,0.00,VWS V14.01,2013-06-19 00:20:00,
2013-06-19 02:25:00,79.2,60.1,29.97,NE,42,3.0,3.0,52,0.00,,,0.00,VWS V14.01,2013-06-19 00:25:00,
2013-06-19 02:30:00,78.2,59.7,29.97,NE,42,3.0,4.0,53,0.00,,,0.00,VWS V14.01,2013-06-19 00:30:00,
2013-06-19 02:35:00,78.8,59.2,29.97,NE,42,2.0,3.0,51,0.00,,,0.00,VWS V14.01,2013-06-19 00:35:00,
2013-06-19 02:40:00,79.2,59.5,29.97,NE,42,0.0,3.0,51,0.00,,,0.00,VWS V14.01,2013-06-19 00:40:00,
2013-06-19 02:45:00,79.3,59.1,29.97,NE,42,0.0,2.0,50,0.00,,,0.00,VWS V14.01,2013-06-19 00:45:00,
2013-06-19 02:50:00,79.5,59.8,29.96,NE,42,0.0,2.0,51,0.00,,,0.00,VWS V14.01,2013-06-19 00:50:00,
2013-06-19 02:55:00,79.4,60.3,29.96,NE,42,2.0,2.0,52,0.00,,,0.00,VWS V14.01,2013-06-19 00:55:00,
2013-06-19 03:00:00,79.6,59.9,29.96,NE,42,0.0,2.0,51,0.00,,,0.00,VWS V14.01,2013-06-19 01:00:00,
2013-06-19 03:05:00,79.3,59.6,29.96,NE,42,0.0,1.0,51,0.00,,,0.00,VWS V14.01,2013-06-19 01:05:00,
2013-06-19 03:10:00,79.5,60.3,29.96,NE,42,0.0,1.0,52,0.00,,,0.00,VWS V14.01,2013-06-19 01:10:00,
2013-06-19 03:15:00,79.1,60.0,29.96,NE,42,0.0,0.0,52,0.00,,,0.00,VWS V14.01,2013-06-19 01:15:00,
2013-06-19 03:20:00,79.0,59.3,29.96,NE,42,0.0,0.0,51,0.00,,,0.00,VWS V14.01,2013-06-19 01:20:00,
2013-06-19 03:25:00,79.0,59.9,29.96,NE,42,1.0,2.0,52,0.00,,,0.00,VWS V14.01,2013-06-19 01:25:00,
2013-06-19 03:30:00,79.4,60.8,29.96,NE,42,0.0,2.0,53,0.00,,,0.00,VWS V14.01,2013-06-19 01:30:00,
2013-06-19 03:35:00,79.0,60.4,29.96,NE,42,0.0,0.0,53,0.00,,,0.00,VWS V14.01,2013-06-19 01:35:00,
2013-06-19 03:40:00,78.6,60.6,29.96,NE,42,0.0,0.0,54,0.00,,,0.00,VWS V14.01,2013-06-19 01:40:00,
2013-06-19 03:45:00,78.2,61.2,29.96,NE,42,0.0,0.0,56,0.00,,,0.00,VWS V14.01,2013-06-19 01:45:00,
2013-06-19 03:50:00,78.1,62.1,29.96,NE,42,0.0,1.0,58,0.00,,,0.00,VWS V14.01,2013-06-19 01:50:00,
2013-06-19 03:55:00,78.0,62.5,29.97,NE,42,0.0,0.0,59,0.00,,,0.00,VWS V14.01,2013-06-19 01:55:00,
2013-06-19 04:00:00,77.8,61.4,29.96,NE,42,0.0,0.0,57,0.00,,,0.00,VWS V14.01,2013-06-19 02:00:00,
2013-06-19 04:06:00,77.6,61.7,29.96,NE,42,0.0,0.0,58,0.00,,,0.00,VWS V14.01,2013-06-19 02:06:00,
2013-06-19 04:10:00,77.2,61.8,29.96,NE,42,0.0,0.0,59,0.00,,,0.00,VWS V14.01,2013-06-19 02:10:00,
2013-06-19 04:11:00,77.3,61.4,29.96,NE,42,0.0,0.0,58,0.00,,,0.00,VWS V14.01,2013-06-19 02:11:00,
2013-06-19 04:16:00,77.1,61.7,29.97,NE,42,0.0,0.0,59,0.00,,,0.00,VWS V14.01,2013-06-19 02:16:00,
2013-06-19 04:20:00,76.7,62.2,29.96,NE,42,0.0,0.0,61,0.00,,,0.00,VWS V14.01,2013-06-19 02:20:00,
2013-06-19 04:21:00,76.9,62.0,29.97,NE,42,0.0,0.0,60,0.00,,,0.00,VWS V14.01,2013-06-19 02:21:00,
2013-06-19 04:26:00,76.5,62.5,29.96,NE,42,0.0,0.0,62,0.00,,,0.00,VWS V14.01,2013-06-19 02:26:00,
2013-06-19 04:30:00,76.3,62.8,29.96,NE,42,0.0,0.0,63,0.00,,,0.00,VWS V14.01,2013-06-19 02:30:00,
2013-06-19 04:31:00,76.4,62.4,29.96,NE,42,0.0,0.0,62,0.00,,,0.00,VWS V14.01,2013-06-19 02:31:00,
2013-06-19 04:36:00,76.4,62.9,29.96,NE,42,0.0,0.0,63,0.00,,,0.00,VWS V14.01,2013-06-19 02:36:00,
2013-06-19 04:40:00,76.4,63.3,29.96,NE,42,0.0,0.0,64,0.00,,,0.00,VWS V14.01,2013-06-19 02:40:00,
2013-06-19 04:41:00,76.4,63.3,29.97,NE,42,0.0,0.0,64,0.00,,,0.00,VWS V14.01,2013-06-19 02:41:00,
2013-06-19 04:46:00,76.5,63.9,29.96,NE,42,0.0,1.0,65,0.00,,,0.00,VWS V14.01,2013-06-19 02:46:00,
2013-06-19 04:50:00,76.5,64.7,29.97,NE,42,0.0,1.0,67,0.00,,,0.00,VWS V14.01,2013-06-19 02:50:00,
2013-06-19 04:51:00,76.5,64.3,29.97,NE,42,0.0,1.0,66,0.00,,,0.00,VWS V14.01,2013-06-19 02:51:00,
2013-06-19 04:56:00,76.6,64.8,29.97,NE,42,0.0,0.0,67,0.00,,,0.00,VWS V14.01,2013-06-19 02:56:00,
2013-06-19 05:00:00,76.4,65.1,29.98,NE,42,0.0,0.0,68,0.00,,,0.00,VWS V14.01,2013-06-19 03:00:00,
2013-06-19 05:01:00,76.3,64.6,29.97,NE,42,0.0,0.0,67,0.00,,,0.00,VWS V14.01,2013-06-19 03:01:00,
2013-06-19 05:06:00,76.4,65.1,29.97,NE,42,0.0,0.0,68,0.00,,,0.00,VWS V14.01,2013-06-19 03:06:00,
2013-06-19 05:10:00,76.0,64.7,29.97,NE,42,0.0,0.0,68,0.00,,,0.00,VWS V14.01,2013-06-19 03:10:00,
2013-06-19 05:11:00,76.1,64.8,29.97,NE,42,0.0,0.0,68,0.00,,,0.00,VWS V14.01,2013-06-19 03:11:00,
2013-06-19 05:16:00,76.1,64.8,29.97,NE,42,0.0,0.0,68,0.00,,,0.00,VWS V14.01,2013-06-19 03:16:00,
2013-06-19 05:20:00,76.0,64.7,29.97,NE,42,0.0,0.0,68,0.00,,,0.00,VWS V14.01,2013-06-19 03:20:00,
2013-06-19 05:21:00,76.1,64.8,29.97,NE,42,0.0,0.0,68,0.00,,,0.00,VWS V14.01,2013-06-19 03:21:00,
2013-06-19 05:26:00,75.9,64.6,29.97,NE,42,0.0,0.0,68,0.00,,,0.00,VWS V14.01,2013-06-19 03:26:00,
2013-06-19 05:30:00,75.7,64.4,29.97,NE,42,0.0,0.0,68,0.00,,,0.00,VWS V14.01,2013-06-19 03:30:00,
2013-06-19 05:31:00,75.7,64.8,29.97,NE,42,0.0,0.0,69,0.00,,,0.00,VWS V14.01,2013-06-19 03:31:00,
2013-06-19 05:36:00,75.6,64.3,29.97,NE,42,0.0,0.0,68,0.00,,,0.00,VWS V14.01,2013-06-19 03:36:00,
2013-06-19 05:40:00,75.6,64.3,29.98,NE,42,0.0,0.0,68,0.00,,,0.00,VWS V14.01,2013-06-19 03:40:00,
2013-06-19 05:41:00,75.6,64.3,29.97,NE,42,0.0,0.0,68,0.00,,,0.00,VWS V14.01,2013-06-19 03:41:00,
2013-06-19 05:46:00,75.6,64.7,29.98,NE,42,0.0,0.0,69,0.00,,,0.00,VWS V14.01,2013-06-19 03:46:00,
2013-06-19 05:50:00,75.7,64.8,29.97,NE,42,3.0,3.0,69,0.00,,,0.00,VWS V14.01,2013-06-19 03:50:00,
2013-06-19 05:51:00,75.7,64.8,29.97,NE,42,0.0,0.0,69,0.00,,,0.00,VWS V14.01,2013-06-19 03:51:00,
2013-06-19 05:56:00,75.7,64.8,29.97,NE,42,3.0,3.0,69,0.00,,,0.00,VWS V14.01,2013-06-19 03:56:00,
2013-06-19 06:00:00,75.7,65.2,29.98,NE,42,0.0,3.0,70,0.00,,,0.00,VWS V14.01,2013-06-19 04:00:00,
2013-06-19 06:01:00,75.7,65.2,29.97,NE,42,1.0,3.0,70,0.00,,,0.00,VWS V14.01,2013-06-19 04:01:00,
2013-06-19 06:06:00,75.6,65.5,29.98,NE,42,0.0,0.0,71,0.00,,,0.00,VWS V14.01,2013-06-19 04:06:00,
2013-06-19 06:10:00,75.7,65.6,29.98,NE,42,0.0,0.0,71,0.00,,,0.00,VWS V14.01,2013-06-19 04:10:00,
2013-06-19 06:11:00,75.6,65.5,29.98,NE,42,0.0,0.0,71,0.00,,,0.00,VWS V14.01,2013-06-19 04:11:00,
2013-06-19 06:16:00,75.7,65.6,29.97,NE,42,0.0,0.0,71,0.00,,,0.00,VWS V14.01,2013-06-19 04:16:00,
2013-06-19 06:20:00,76.3,65.8,29.98,NE,42,0.0,0.0,70,0.00,,,0.00,VWS V14.01,2013-06-19 04:20:00,
2013-06-19 06:21:00,76.1,65.6,29.98,NE,42,0.0,0.0,70,0.00,,,0.00,VWS V14.01,2013-06-19 04:21:00,
2013-06-19 06:26:00,76.5,65.6,29.98,NE,42,0.0,0.0,69,0.00,,,0.00,VWS V14.01,2013-06-19 04:26:00,
2013-06-19 06:30:00,77.4,66.4,29.98,NE,42,0.0,0.0,69,0.00,,,0.00,VWS V14.01,2013-06-19 04:30:00,
2013-06-19 06:31:00,77.1,66.2,29.98,NE,42,0.0,0.0,69,0.00,,,0.00,VWS V14.01,2013-06-19 04:31:00,
2013-06-19 06:36:00,77.4,66.4,29.98,NE,42,0.0,0.0,69,0.00,,,0.00,VWS V14.01,2013-06-19 04:36:00,
2013-06-19 06:40:00,77.5,66.5,29.98,NE,42,0.0,0.0,69,0.00,,,0.00,VWS V14.01,2013-06-19 04:40:00,
2013-06-19 06:41:00,77.4,66.4,29.98,NE,42,0.0,0.0,69,0.00,,,0.00,VWS V14.01,2013-06-19 04:41:00,
2013-06-19 06:46:00,77.8,66.8,29.98,NE,42,0.0,0.0,69,0.00,,,0.00,VWS V14.01,2013-06-19 04:46:00,
2013-06-19 06:50:00,78.3,66.9,29.98,NE,42,0.0,0.0,68,0.00,,,0.00,VWS V14.01,2013-06-19 04:50:00,
2013-06-19 06:51:00,78.2,66.8,29.98,NE,42,0.0,0.0,68,0.00,,,0.00,VWS V14.01,2013-06-19 04:51:00,
2013-06-19 06:56:00,78.2,67.2,29.98,NE,42,0.0,0.0,69,0.00,,,0.00,VWS V14.01,2013-06-19 04:56:00,
2013-06-19 07:00:00,78.2,67.6,29.98,NE,42,0.0,0.0,70,0.00,,,0.00,VWS V14.01,2013-06-19 05:00:00,
2013-06-19 07:01:00,78.2,67.2,29.98,NE,42,0.0,0.0,69,0.00,,,0.00,VWS V14.01,2013-06-19 05:01:00,
2013-06-19 07:06:00,78.3,67.7,29.98,NE,42,0.0,0.0,70,0.00,,,0.00,VWS V14.01,2013-06-19 05:06:00,
2013-06-19 07:10:00,78.8,68.2,29.98,NE,42,0.0,0.0,70,0.00,,,0.00,VWS V14.01,2013-06-19 05:10:00,
2013-06-19 07:11:00,78.7,68.1,29.98,NE,42,0.0,0.0,70,0.00,,,0.00,VWS V14.01,2013-06-19 05:11:00,
2013-06-19 07:16:00,79.0,68.4,29.98,NE,42,0.0,0.0,70,0.00,,,0.00,VWS V14.01,2013-06-19 05:16:00,
2013-06-19 07:20:00,79.2,68.6,29.98,NE,42,0.0,0.0,70,0.00,,,0.00,VWS V14.01,2013-06-19 05:20:00,
2013-06-19 07:21:00,79.1,68.5,29.98,NE,42,0.0,0.0,70,0.00,,,0.00,VWS V14.01,2013-06-19 05:21:00,
2013-06-19 07:26:00,79.4,68.3,29.98,NE,42,0.0,0.0,69,0.00,,,0.00,VWS V14.01,2013-06-19 05:26:00,
2013-06-19 07:30:00,80.0,68.5,29.98,NE,42,0.0,0.0,68,0.00,,,0.00,VWS V14.01,2013-06-19 05:30:00,
2013-06-19 07:31:00,79.9,68.8,29.98,NE,42,0.0,0.0,69,0.00,,,0.00,VWS V14.01,2013-06-19 05:31:00,
2013-06-19 07:36:00,80.2,68.3,29.98,NE,42,0.0,0.0,67,0.00,,,0.00,VWS V14.01,2013-06-19 05:36:00,
2013-06-19 07:40:00,80.5,68.1,29.98,NE,42,2.0,2.0,66,0.00,,,0.00,VWS V14.01,2013-06-19 05:40:00,
2013-06-19 07:41:00,80.5,68.5,29.98,NE,42,1.0,2.0,67,0.00,,,0.00,VWS V14.01,2013-06-19 05:41:00,
2013-06-19 07:46:00,80.6,68.2,29.98,NE,42,0.0,2.0,66,0.00,,,0.00,VWS V14.01,2013-06-19 05:46:00,
2013-06-19 07:50:00,80.6,67.3,29.99,NE,42,0.0,4.0,64,0.00,,,0.00,VWS V14.01,2013-06-19 05:50:00,
2013-06-19 07:51:00,80.7,67.4,29.98,NE,42,2.0,4.0,64,0.00,,,0.00,VWS V14.01,2013-06-19 05:51:00,
2013-06-19 07:56:00,80.6,67.8,29.99,NE,42,0.0,3.0,65,0.00,,,0.00,VWS V14.01,2013-06-19 05:56:00,
2013-06-19 08:00:00,80.3,67.5,29.99,NE,42,3.0,3.0,65,0.00,,,0.00,VWS V14.01,2013-06-19 06:00:00,
2013-06-19 08:02:00,80.8,67.9,29.99,NE,42,1.0,3.0,65,0.00,,,0.00,VWS V14.01,2013-06-19 06:02:00,
2013-06-19 08:07:00,79.3,67.0,29.99,NE,35,2.0,4.0,66,0.00,,,0.00,VWS V14.01,2013-06-19 06:07:00,
2013-06-19 08:10:00,78.4,67.0,29.99,NNW,340,2.0,4.0,68,0.00,,,0.00,VWS V14.01,2013-06-19 06:10:00,
2013-06-19 08:12:00,78.6,66.7,29.99,NNW,346,3.0,4.0,67,0.00,,,0.00,VWS V14.01,2013-06-19 06:12:00,
2013-06-19 08:17:00,78.2,66.8,29.99,NNW,340,2.0,3.0,68,0.00,,,0.00,VWS V14.01,2013-06-19 06:17:00,
2013-06-19 08:20:00,78.3,67.3,30.00,NNW,338,1.0,3.0,69,0.00,,,0.00,VWS V14.01,2013-06-19 06:20:00,
2013-06-19 08:22:00,78.1,66.7,29.99,NNW,340,1.0,3.0,68,0.00,,,0.00,VWS V14.01,2013-06-19 06:22:00,
2013-06-19 08:27:00,78.7,67.7,30.00,NNW,338,0.0,1.0,69,0.00,,,0.00,VWS V14.01,2013-06-19 06:27:00,
2013-06-19 08:30:00,79.8,67.9,30.00,NW,313,3.0,4.0,67,0.00,,,0.00,VWS V14.01,2013-06-19 06:30:00,
2013-06-19 08:32:00,79.7,68.2,30.00,NNW,338,2.0,3.0,68,0.00,,,0.00,VWS V14.01,2013-06-19 06:32:00,
2013-06-19 08:36:00,79.8,67.9,30.00,West,276,4.0,5.0,67,0.00,,,0.00,VWS V14.01,2013-06-19 06:36:00,
2013-06-19 08:40:00,80.1,68.2,29.99,West,275,3.0,5.0,67,0.00,,,0.00,VWS V14.01,2013-06-19 06:40:00,
2013-06-19 08:41:00,79.9,68.0,30.00,West,276,1.0,5.0,67,0.00,,,0.00,VWS V14.01,2013-06-19 06:41:00,
2013-06-19 08:46:00,80.2,67.8,29.99,West,261,3.0,5.0,66,0.00,,,0.00,VWS V14.01,2013-06-19 06:46:00,
2013-06-19 08:50:00,80.1,67.7,30.00,WSW,254,2.0,5.0,66,0.00,,,0.00,VWS V14.01,2013-06-19 06:50:00,
2013-06-19 08:51:00,80.2,67.8,29.99,WSW,254,3.0,5.0,66,0.00,,,0.00,VWS V14.01,2013-06-19 06:51:00,
2013-06-19 08:56:00,80.0,68.1,30.00,WSW,254,3.0,5.0,67,0.00,,,0.00,VWS V14.01,2013-06-19 06:56:00,
2013-06-19 09:00:00,79.8,67.9,30.00,SW,221,5.0,6.0,67,0.00,,,0.00,VWS V14.01,2013-06-19 07:00:00,
2013-06-19 09:01:00,79.6,67.7,30.00,SW,221,3.0,6.0,67,0.00,,,0.00,VWS V14.01,2013-06-19 07:01:00,
2013-06-19 09:06:00,79.9,68.4,30.00,SW,217,6.0,6.0,68,0.00,,,0.00,VWS V14.01,2013-06-19 07:06:00,
2013-06-19 09:10:00,80.0,68.5,30.00,SSW,202,2.0,6.0,68,0.00,,,0.00,VWS V14.01,2013-06-19 07:10:00,
2013-06-19 09:11:00,79.8,68.3,30.00,SSW,203,2.0,6.0,68,0.00,,,0.00,VWS V14.01,2013-06-19 07:11:00,
2013-06-19 09:16:00,80.4,68.4,30.00,SSW,202,3.0,4.0,67,0.00,,,0.00,VWS V14.01,2013-06-19 07:16:00,
2013-06-19 09:20:00,80.6,68.6,30.00,SSW,202,0.0,5.0,67,0.00,,,0.00,VWS V14.01,2013-06-19 07:20:00,
2013-06-19 09:22:00,80.6,68.6,30.00,SSW,202,2.0,5.0,67,0.00,,,0.00,VWS V14.01,2013-06-19 07:22:00,
2013-06-19 09:27:00,81.0,68.6,30.00,SSW,198,5.0,5.0,66,0.00,,,0.00,VWS V14.01,2013-06-19 07:27:00,
2013-06-19 09:30:00,80.9,68.5,30.00,South,190,2.0,6.0,66,0.00,,,0.00,VWS V14.01,2013-06-19 07:30:00,
2013-06-19 09:32:00,81.0,68.6,30.00,South,190,3.0,6.0,66,0.00,,,0.00,VWS V14.01,2013-06-19 07:32:00,
2013-06-19 09:36:00,81.0,68.6,30.00,South,187,5.0,6.0,66,0.00,,,0.00,VWS V14.01,2013-06-19 07:36:00,
2013-06-19 09:40:00,80.7,67.8,30.00,South,187,4.0,7.0,65,0.00,,,0.00,VWS V14.01,2013-06-19 07:40:00,
2013-06-19 09:41:00,80.9,68.0,30.00,South,187,6.0,7.0,65,0.00,,,0.00,VWS V14.01,2013-06-19 07:41:00,
2013-06-19 09:46:00,80.7,67.8,30.00,South,186,5.0,6.0,65,0.00,,,0.00,VWS V14.01,2013-06-19 07:46:00,
2013-06-19 09:50:00,80.6,68.2,30.00,South,171,1.0,7.0,66,0.00,,,0.00,VWS V14.01,2013-06-19 07:50:00,
2013-06-19 09:52:00,80.6,68.2,30.00,South,180,4.0,7.0,66,0.00,,,0.00,VWS V14.01,2013-06-19 07:52:00,
2013-06-19 09:57:00,80.7,68.7,30.00,SSE,166,1.0,6.0,67,0.00,,,0.00,VWS V14.01,2013-06-19 07:57:00,
2013-06-19 10:00:00,81.0,68.6,30.00,SSE,165,0.0,6.0,66,0.00,,,0.00,VWS V14.01,2013-06-19 08:00:00,
2013-06-19 10:01:00,81.0,69.0,30.00,SSE,167,2.0,6.0,67,0.00,,,0.00,VWS V14.01,2013-06-19 08:01:00,
2013-06-19 10:07:00,81.2,68.8,30.00,SSE,165,3.0,4.0,66,0.00,,,0.00,VWS V14.01,2013-06-19 08:07:00,
2013-06-19 10:10:00,80.9,68.0,30.00,South,182,5.0,6.0,65,0.00,,,0.00,VWS V14.01,2013-06-19 08:10:00,
2013-06-19 10:12:00,81.0,68.6,30.00,South,181,6.0,6.0,66,0.00,,,0.00,VWS V14.01,2013-06-19 08:12:00,
2013-06-19 10:17:00,81.3,68.4,30.00,South,178,3.0,5.0,65,0.00,,,0.00,VWS V14.01,2013-06-19 08:17:00,
2013-06-19 10:20:00,81.3,68.0,30.00,South,170,2.0,7.0,64,0.00,,,0.00,VWS V14.01,2013-06-19 08:20:00,
2013-06-19 10:22:00,81.3,67.1,30.00,South,170,4.0,7.0,62,0.00,,,0.00,VWS V14.01,2013-06-19 08:22:00,
2013-06-19 10:27:00,81.3,67.5,30.00,South,178,6.0,7.0,63,0.00,,,0.00,VWS V14.01,2013-06-19 08:27:00,
2013-06-19 10:30:00,81.6,67.8,30.00,South,175,6.0,7.0,63,0.00,,,0.00,VWS V14.01,2013-06-19 08:30:00,
2013-06-19 10:32:00,81.5,68.2,30.01,South,176,2.0,7.0,64,0.00,,,0.00,VWS V14.01,2013-06-19 08:32:00,
2013-06-19 10:37:00,82.0,68.6,30.01,South,173,0.0,6.0,64,0.00,,,0.00,VWS V14.01,2013-06-19 08:37:00,
2013-06-19 10:40:00,82.3,68.0,30.00,South,173,3.0,6.0,62,0.00,,,0.00,VWS V14.01,2013-06-19 08:40:00,
2013-06-19 10:42:00,82.4,68.1,30.00,South,173,4.0,6.0,62,0.00,,,0.00,VWS V14.01,2013-06-19 08:42:00,
2013-06-19 10:47:00,81.7,67.9,30.01,SSW,193,3.0,6.0,63,0.00,,,0.00,VWS V14.01,2013-06-19 08:47:00,
2013-06-19 10:50:00,81.7,68.3,30.01,South,183,4.0,6.0,64,0.00,,,0.00,VWS V14.01,2013-06-19 08:50:00,
2013-06-19 10:52:00,81.7,68.3,30.01,South,188,2.0,6.0,64,0.00,,,0.00,VWS V14.01,2013-06-19 08:52:00,
2013-06-19 10:57:00,81.6,67.3,30.01,South,178,5.0,6.0,62,0.00,,,0.00,VWS V14.01,2013-06-19 08:57:00,
2013-06-19 11:00:00,81.4,69.0,30.01,South,172,3.0,6.0,66,0.00,,,0.00,VWS V14.01,2013-06-19 09:00:00,
2013-06-19 11:02:00,81.3,68.4,30.01,South,171,3.0,6.0,65,0.00,,,0.00,VWS V14.01,2013-06-19 09:02:00,
2013-06-19 11:07:00,81.3,68.9,30.01,South,173,4.0,5.0,66,0.00,,,0.00,VWS V14.01,2013-06-19 09:07:00,
2013-06-19 11:10:00,81.5,68.2,30.01,South,175,1.0,6.0,64,0.00,,,0.00,VWS V14.01,2013-06-19 09:10:00,
2013-06-19 11:12:00,81.5,68.6,30.01,South,175,6.0,6.0,65,0.00,,,0.00,VWS V14.01,2013-06-19 09:12:00,
2013-06-19 11:17:00,81.9,68.5,30.01,South,175,1.0,4.0,64,0.00,,,0.00,VWS V14.01,2013-06-19 09:17:00,
2013-06-19 11:20:00,82.4,67.6,30.01,South,184,2.0,5.0,61,0.00,,,0.00,VWS V14.01,2013-06-19 09:20:00,
2013-06-19 11:22:00,82.2,67.9,30.01,South,184,2.0,5.0,62,0.00,,,0.00,VWS V14.01,2013-06-19 09:22:00,
2013-06-19 11:27:00,82.0,66.3,30.01,SW,232,5.0,8.0,59,0.00,,,0.00,VWS V14.01,2013-06-19 09:27:00,
2013-06-19 11:30:00,81.4,66.2,30.01,SSW,192,3.0,8.0,60,0.00,,,0.00,VWS V14.01,2013-06-19 09:30:00,
2013-06-19 11:32:00,81.6,66.4,30.01,SSW,192,6.0,8.0,60,0.00,,,0.00,VWS V14.01,2013-06-19 09:32:00,
2013-06-19 11:37:00,81.9,67.1,30.01,SW,228,4.0,7.0,61,0.00,,,0.00,VWS V14.01,2013-06-19 09:37:00,
2013-06-19 11:40:00,81.6,67.8,30.01,SSW,207,4.0,8.0,63,0.00,,,0.00,VWS V14.01,2013-06-19 09:40:00,
2013-06-19 11:42:00,81.5,67.2,30.01,SSW,207,3.0,8.0,62,0.00,,,0.00,VWS V14.01,2013-06-19 09:42:00,
2013-06-19 11:47:00,81.7,67.4,30.01,South,182,4.0,7.0,62,0.00,,,0.00,VWS V14.01,2013-06-19 09:47:00,
2013-06-19 11:50:00,80.9,67.6,30.01,WSW,239,2.0,7.0,64,0.00,,,0.00,VWS V14.01,2013-06-19 09:50:00,
2013-06-19 11:52:00,80.9,67.6,30.01,WSW,239,3.0,7.0,64,0.00,,,0.00,VWS V14.01,2013-06-19 09:52:00,
2013-06-19 11:57:00,81.4,68.5,30.01,SW,224,2.0,6.0,65,0.00,,,0.00,VWS V14.01,2013-06-19 09:57:00,
2013-06-19 12:00:00,81.1,69.1,30.01,SW,222,7.0,8.0,67,0.00,,,0.00,VWS V14.01,2013-06-19 10:00:00,
2013-06-19 12:02:00,81.3,68.9,30.01,SW,236,6.0,7.0,66,0.00,,,0.00,VWS V14.01,2013-06-19 10:02:00,
2013-06-19 12:07:00,80.8,68.8,30.01,SSW,207,5.0,6.0,67,0.00,,,0.00,VWS V14.01,2013-06-19 10:07:00,
2013-06-19 12:10:00,80.9,68.5,30.01,SSW,209,6.0,8.0,66,0.00,,,0.00,VWS V14.01,2013-06-19 10:10:00,
2013-06-19 12:12:00,80.8,68.4,30.01,SSW,207,6.0,8.0,66,0.00,,,0.00,VWS V14.01,2013-06-19 10:12:00,
2013-06-19 12:17:00,80.9,68.9,30.01,SW,224,7.0,8.0,67,0.00,,,0.00,VWS V14.01,2013-06-19 10:17:00,
2013-06-19 12:20:00,81.1,69.6,30.01,South,189,5.0,8.0,68,0.00,,,0.00,VWS V14.01,2013-06-19 10:20:00,
2013-06-19 12:22:00,81.2,69.6,30.01,SSW,207,5.0,8.0,68,0.00,,,0.00,VWS V14.01,2013-06-19 10:22:00,
2013-06-19 12:27:00,81.5,70.8,30.01,SSW,197,4.0,8.0,70,0.00,,,0.00,VWS V14.01,2013-06-19 10:27:00,
2013-06-19 12:30:00,81.3,70.2,30.01,South,185,6.0,9.0,69,0.00,,,0.00,VWS V14.01,2013-06-19 10:30:00,
2013-06-19 12:32:00,81.4,70.3,30.01,South,170,5.0,9.0,69,0.00,,,0.00,VWS V14.01,2013-06-19 10:32:00,
2013-06-19 12:37:00,80.5,69.8,30.01,SW,223,8.0,9.0,70,0.00,,,0.00,VWS V14.01,2013-06-19 10:37:00,
2013-06-19 12:40:00,79.9,69.7,30.01,SSW,205,5.0,10.0,71,0.00,,,0.00,VWS V14.01,2013-06-19 10:40:00,
2013-06-19 12:42:00,79.9,69.2,30.01,SSW,209,3.0,10.0,70,0.00,,,0.00,VWS V14.01,2013-06-19 10:42:00,
2013-06-19 12:47:00,80.2,69.9,30.01,South,190,3.0,7.0,71,0.00,,,0.00,VWS V14.01,2013-06-19 10:47:00,
2013-06-19 12:50:00,81.5,70.8,30.01,SW,220,4.0,7.0,70,0.00,,,0.00,VWS V14.01,2013-06-19 10:50:00,
2013-06-19 12:52:00,81.3,71.0,30.01,SW,220,2.0,7.0,71,0.00,,,0.00,VWS V14.01,2013-06-19 10:52:00,
2013-06-19 12:57:00,81.9,70.7,30.01,SW,225,5.0,6.0,69,0.00,,,0.00,VWS V14.01,2013-06-19 10:57:00,
2013-06-19 13:00:00,81.9,70.7,30.01,WSW,250,7.0,8.0,69,0.00,,,0.00,VWS V14.01,2013-06-19 11:00:00,
2013-06-19 13:02:00,81.8,71.1,30.01,WSW,250,7.0,8.0,70,0.00,,,0.00,VWS V14.01,2013-06-19 11:02:00,
2013-06-19 13:07:00,81.7,70.6,30.01,SW,219,4.0,8.0,69,0.00,,,0.00,VWS V14.01,2013-06-19 11:07:00,
2013-06-19 13:10:00,81.6,70.9,30.01,SW,230,6.0,8.0,70,0.00,,,0.00,VWS V14.01,2013-06-19 11:10:00,
2013-06-19 13:12:00,81.4,70.7,30.01,SW,232,6.0,8.0,70,0.00,,,0.00,VWS V14.01,2013-06-19 11:12:00,
2013-06-19 13:17:00,81.7,70.6,30.01,WSW,240,7.0,7.0,69,0.00,,,0.00,VWS V14.01,2013-06-19 11:17:00,
2013-06-19 13:20:00,81.1,70.4,30.01,WSW,243,6.0,7.0,70,0.00,,,0.00,VWS V14.01,2013-06-19 11:20:00,
2013-06-19 13:22:00,81.3,70.2,30.01,WSW,244,6.0,7.0,69,0.00,,,0.00,VWS V14.01,2013-06-19 11:22:00,
2013-06-19 13:27:00,80.7,70.8,30.01,WSW,251,7.0,9.0,72,0.00,,,0.00,VWS V14.01,2013-06-19 11:27:00,
2013-06-19 13:30:00,80.8,70.9,30.01,WSW,245,6.0,10.0,72,0.00,,,0.00,VWS V14.01,2013-06-19 11:30:00,
2013-06-19 13:32:00,80.8,70.9,30.01,WSW,246,8.0,10.0,72,0.00,,,0.00,VWS V14.01,2013-06-19 11:32:00,
2013-06-19 13:37:00,80.8,70.9,30.00,WSW,242,7.0,8.0,72,0.00,,,0.00,VWS V14.01,2013-06-19 11:37:00,
2013-06-19 13:40:00,81.1,70.8,30.00,WSW,246,5.0,8.0,71,0.00,,,0.00,VWS V14.01,2013-06-19 11:40:00,
2013-06-19 13:42:00,81.0,71.1,30.00,WSW,242,3.0,8.0,72,0.00,,,0.00,VWS V14.01,2013-06-19 11:42:00,
2013-06-19 13:47:00,81.7,71.0,30.00,WSW,254,4.0,8.0,70,0.00,,,0.00,VWS V14.01,2013-06-19 11:47:00,
2013-06-19 13:50:00,81.6,70.4,30.00,SW,236,6.0,9.0,69,0.00,,,0.00,VWS V14.01,2013-06-19 11:50:00,
2013-06-19 13:52:00,81.7,71.0,30.00,SW,228,9.0,9.0,70,0.00,,,0.00,VWS V14.01,2013-06-19 11:52:00,
2013-06-19 13:57:00,81.9,70.7,30.00,WSW,252,6.0,7.0,69,0.00,,,0.00,VWS V14.01,2013-06-19 11:57:00,
2013-06-19 14:00:00,81.7,70.6,30.00,WSW,242,4.0,8.0,69,0.00,,,0.00,VWS V14.01,2013-06-19 12:00:00,
2013-06-19 14:02:00,81.6,70.4,30.00,WSW,242,3.0,8.0,69,0.00,,,0.00,VWS V14.01,2013-06-19 12:02:00,
2013-06-19 14:07:00,81.7,70.6,30.00,WSW,239,5.0,6.0,69,0.00,,,0.00,VWS V14.01,2013-06-19 12:07:00,
2013-06-19 14:10:00,82.0,70.4,30.00,SW,236,6.0,8.0,68,0.00,,,0.00,VWS V14.01,2013-06-19 12:10:00,
2013-06-19 14:12:00,82.0,70.4,30.00,SW,233,8.0,8.0,68,0.00,,,0.00,VWS V14.01,2013-06-19 12:12:00,
2013-06-19 14:17:00,82.5,70.4,30.00,SW,235,7.0,8.0,67,0.00,,,0.00,VWS V14.01,2013-06-19 12:17:00,
2013-06-19 14:20:00,82.4,70.8,30.00,SW,230,7.0,8.0,68,0.00,,,0.00,VWS V14.01,2013-06-19 12:20:00,
2013-06-19 14:22:00,82.4,70.8,30.00,WSW,238,7.0,8.0,68,0.00,,,0.00,VWS V14.01,2013-06-19 12:22:00,
2013-06-19 14:27:00,82.7,71.1,30.00,WSW,248,6.0,8.0,68,0.00,,,0.00,VWS V14.01,2013-06-19 12:27:00,
2013-06-19 14:30:00,83.0,70.9,29.99,WSW,246,7.0,10.0,67,0.00,,,0.00,VWS V14.01,2013-06-19 12:30:00,
2013-06-19 14:32:00,83.1,71.4,29.99,West,265,7.0,10.0,68,0.00,,,0.00,VWS V14.01,2013-06-19 12:32:00,
2013-06-19 14:37:00,82.9,70.8,29.99,WSW,255,8.0,9.0,67,0.00,,,0.00,VWS V14.01,2013-06-19 12:37:00,
2013-06-19 14:40:00,82.8,70.7,29.99,WSW,257,7.0,10.0,67,0.00,,,0.00,VWS V14.01,2013-06-19 12:40:00,
2013-06-19 14:42:00,82.8,70.7,29.99,WSW,246,7.0,10.0,67,0.00,,,0.00,VWS V14.01,2013-06-19 12:42:00,
2013-06-19 14:47:00,83.1,70.6,29.99,WSW,254,6.0,7.0,66,0.00,,,0.00,VWS V14.01,2013-06-19 12:47:00,
2013-06-19 14:50:00,83.8,70.8,29.99,WSW,254,4.0,8.0,65,0.00,,,0.00,VWS V14.01,2013-06-19 12:50:00,
2013-06-19 14:52:00,83.7,70.7,29.99,WSW,251,5.0,8.0,65,0.00,,,0.00,VWS V14.01,2013-06-19 12:52:00,
2013-06-19 14:57:00,83.8,70.3,29.99,WSW,237,4.0,8.0,64,0.00,,,0.00,VWS V14.01,2013-06-19 12:57:00,
2013-06-19 15:00:00,84.5,70.5,29.99,West,259,5.0,8.0,63,0.00,,,0.00,VWS V14.01,2013-06-19 13:00:00,
2013-06-19 15:02:00,84.4,70.9,29.99,WSW,254,4.0,8.0,64,0.00,,,0.00,VWS V14.01,2013-06-19 13:02:00,
2013-06-19 15:07:00,84.5,70.1,29.99,West,260,6.0,6.0,62,0.00,,,0.00,VWS V14.01,2013-06-19 13:07:00,
2013-06-19 15:10:00,84.7,70.7,29.99,SW,225,5.0,7.0,63,0.00,,,0.00,VWS V14.01,2013-06-19 13:10:00,
2013-06-19 15:12:00,84.5,70.1,29.98,SW,231,3.0,7.0,62,0.00,,,0.00,VWS V14.01,2013-06-19 13:12:00,
2013-06-19 15:17:00,84.4,70.0,29.98,SW,229,6.0,8.0,62,0.00,,,0.00,VWS V14.01,2013-06-19 13:17:00,
2013-06-19 15:20:00,84.7,70.2,29.98,WSW,243,4.0,8.0,62,0.00,,,0.00,VWS V14.01,2013-06-19 13:20:00,
2013-06-19 15:22:00,84.6,70.2,29.98,WSW,246,2.0,8.0,62,0.00,,,0.00,VWS V14.01,2013-06-19 13:22:00,
2013-06-19 15:27:00,84.6,70.2,29.98,WSW,251,2.0,7.0,62,0.00,,,0.00,VWS V14.01,2013-06-19 13:27:00,
2013-06-19 15:30:00,84.7,70.7,29.98,SW,234,2.0,8.0,63,0.00,,,0.00,VWS V14.01,2013-06-19 13:30:00,
2013-06-19 15:32:00,84.8,70.8,29.98,WSW,244,7.0,8.0,63,0.00,,,0.00,VWS V14.01,2013-06-19 13:32:00,
2013-06-19 15:37:00,84.9,70.9,29.98,WSW,239,2.0,6.0,63,0.00,,,0.00,VWS V14.01,2013-06-19 13:37:00,
2013-06-19 15:40:00,84.8,70.8,29.98,SSW,205,4.0,8.0,63,0.00,,,0.00,VWS V14.01,2013-06-19 13:40:00,
2013-06-19 15:42:00,84.7,70.7,29.98,SSW,210,2.0,8.0,63,0.00,,,0.00,VWS V14.01,2013-06-19 13:42:00,
2013-06-19 15:47:00,84.9,70.9,29.98,SSW,198,2.0,5.0,63,0.00,,,0.00,VWS V14.01,2013-06-19 13:47:00,
2013-06-19 15:50:00,84.6,69.7,29.98,WSW,246,4.0,8.0,61,0.00,,,0.00,VWS V14.01,2013-06-19 13:50:00,
2013-06-19 15:52:00,84.7,69.8,29.98,WSW,252,3.0,8.0,61,0.00,,,0.00,VWS V14.01,2013-06-19 13:52:00,
2013-06-19 15:57:00,84.0,69.6,29.98,SW,236,4.0,8.0,62,0.00,,,0.00,VWS V14.01,2013-06-19 13:57:00,
2013-06-19 16:00:00,84.0,69.6,29.97,WSW,250,4.0,8.0,62,0.00,,,0.00,VWS V14.01,2013-06-19 14:00:00,
2013-06-19 16:02:00,84.0,69.6,29.97,WSW,246,3.0,8.0,62,0.00,,,0.00,VWS V14.01,2013-06-19 14:02:00,
2013-06-19 16:07:00,83.3,69.4,29.98,WSW,238,7.0,10.0,63,0.00,,,0.00,VWS V14.01,2013-06-19 14:07:00,
2013-06-19 16:10:00,83.1,70.1,29.97,SW,236,6.0,10.0,65,0.00,,,0.00,VWS V14.01,2013-06-19 14:10:00,
2013-06-19 16:12:00,83.0,70.0,29.97,SW,236,6.0,10.0,65,0.00,,,0.00,VWS V14.01,2013-06-19 14:12:00,
2013-06-19 16:17:00,83.2,70.7,29.97,SW,231,3.0,7.0,66,0.00,,,0.00,VWS V14.01,2013-06-19 14:17:00,
2013-06-19 16:20:00,83.4,69.9,29.97,West,266,6.0,8.0,64,0.00,,,0.00,VWS V14.01,2013-06-19 14:20:00,
2013-06-19 16:22:00,83.2,69.8,29.97,WSW,242,4.0,8.0,64,0.00,,,0.00,VWS V14.01,2013-06-19 14:22:00,
2013-06-19 16:27:00,83.7,69.3,29.97,WSW,254,5.0,7.0,62,0.00,,,0.00,VWS V14.01,2013-06-19 14:27:00,
2013-06-19 16:30:00,84.2,68.8,29.97,West,264,12.0,12.0,60,0.00,,,0.00,VWS V14.01,2013-06-19 14:30:00,
2013-06-19 16:32:00,84.1,69.2,29.97,West,263,6.0,11.0,61,0.00,,,0.00,VWS V14.01,2013-06-19 14:32:00,
2013-06-19 16:37:00,84.0,68.6,29.97,West,274,4.0,14.0,60,0.00,,,0.00,VWS V14.01,2013-06-19 14:37:00,
2013-06-19 16:40:00,84.4,69.5,29.97,WNW,284,7.0,14.0,61,0.00,,,0.00,VWS V14.01,2013-06-19 14:40:00,
2013-06-19 16:42:00,84.4,69.5,29.97,WSW,254,6.0,14.0,61,0.00,,,0.00,VWS V14.01,2013-06-19 14:42:00,
2013-06-19 16:47:00,84.7,69.8,29.97,WSW,243,3.0,13.0,61,0.00,,,0.00,VWS V14.01,2013-06-19 14:47:00,
2013-06-19 16:50:00,84.5,69.1,29.97,WSW,257,7.0,13.0,60,0.00,,,0.00,VWS V14.01,2013-06-19 14:50:00,
2013-06-19 16:52:00,84.7,68.8,29.97,SW,229,10.0,13.0,59,0.00,,,0.00,VWS V14.01,2013-06-19 14:52:00,
2013-06-19 16:57:00,84.4,68.5,29.97,WNW,299,10.0,13.0,59,0.00,,,0.00,VWS V14.01,2013-06-19 14:57:00,
2013-06-19 17:00:00,84.0,68.6,29.97,WNW,288,10.0,14.0,60,0.00,,,0.00,VWS V14.01,2013-06-19 15:00:00,
2013-06-19 17:02:00,83.9,68.1,29.97,West,272,10.0,14.0,59,0.00,,,0.00,VWS V14.01,2013-06-19 15:02:00,
2013-06-19 17:07:00,83.5,69.1,29.97,West,273,2.0,14.0,62,0.00,,,0.00,VWS V14.01,2013-06-19 15:07:00,
2013-06-19 17:10:00,84.3,69.9,29.97,NW,306,8.0,14.0,62,0.00,,,0.00,VWS V14.01,2013-06-19 15:10:00,
2013-06-19 17:12:00,84.2,69.8,29.97,WNW,288,0.0,14.0,62,0.00,,,0.00,VWS V14.01,2013-06-19 15:12:00,
2013-06-19 17:17:00,84.1,69.2,29.97,SW,231,1.0,10.0,61,0.00,,,0.00,VWS V14.01,2013-06-19 15:17:00,
2013-06-19 17:20:00,84.4,69.5,29.97,NW,318,6.0,10.0,61,0.00,,,0.00,VWS V14.01,2013-06-19 15:20:00,
2013-06-19 17:22:00,84.5,69.6,29.97,NW,309,4.0,10.0,61,0.00,,,0.00,VWS V14.01,2013-06-19 15:22:00,
2013-06-19 17:27:00,83.8,68.0,29.97,WNW,285,1.0,11.0,59,0.00,,,0.00,VWS V14.01,2013-06-19 15:27:00,
2013-06-19 17:30:00,84.0,68.1,29.97,WNW,296,6.0,12.0,59,0.00,,,0.00,VWS V14.01,2013-06-19 15:30:00,
2013-06-19 17:32:00,83.9,68.1,29.97,West,275,5.0,12.0,59,0.00,,,0.00,VWS V14.01,2013-06-19 15:32:00,
2013-06-19 17:37:00,83.6,67.3,29.97,NW,306,5.0,11.0,58,0.00,,,0.00,VWS V14.01,2013-06-19 15:37:00,
2013-06-19 17:40:00,83.3,66.5,29.98,NW,311,7.0,15.0,57,0.00,,,0.00,VWS V14.01,2013-06-19 15:40:00,
2013-06-19 17:42:00,83.3,66.0,29.98,West,281,8.0,12.0,56,0.00,,,0.00,VWS V14.01,2013-06-19 15:42:00,
2013-06-19 17:47:00,83.0,66.7,29.97,NW,318,4.0,13.0,58,0.00,,,0.00,VWS V14.01,2013-06-19 15:47:00,
2013-06-19 17:50:00,83.6,66.8,29.97,WNW,286,7.0,13.0,57,0.00,,,0.00,VWS V14.01,2013-06-19 15:50:00,
2013-06-19 17:52:00,83.6,66.8,29.97,WNW,283,8.0,13.0,57,0.00,,,0.00,VWS V14.01,2013-06-19 15:52:00,
2013-06-19 17:57:00,84.0,66.6,29.97,WNW,296,7.0,8.0,56,0.00,,,0.00,VWS V14.01,2013-06-19 15:57:00,
2013-06-19 18:00:00,84.0,66.1,29.97,WNW,299,10.0,10.0,55,0.00,,,0.00,VWS V14.01,2013-06-19 16:00:00,
2013-06-19 18:02:00,84.0,66.1,29.97,West,272,6.0,9.0,55,0.00,,,0.00,VWS V14.01,2013-06-19 16:02:00,
2013-06-19 18:07:00,83.8,65.9,29.97,WNW,297,13.0,13.0,55,0.00,,,0.00,VWS V14.01,2013-06-19 16:07:00,
2013-06-19 18:10:00,83.5,65.1,29.97,WNW,288,13.0,13.0,54,0.00,,,0.00,VWS V14.01,2013-06-19 16:10:00,
2013-06-19 18:12:00,83.5,65.1,29.97,WNW,294,10.0,13.0,54,0.00,,,0.00,VWS V14.01,2013-06-19 16:12:00,
2013-06-19 18:17:00,83.3,64.9,29.97,West,277,8.0,13.0,54,0.00,,,0.00,VWS V14.01,2013-06-19 16:17:00,
2013-06-19 18:20:00,83.1,65.3,29.97,WNW,296,2.0,13.0,55,0.00,,,0.00,VWS V14.01,2013-06-19 16:20:00,
2013-06-19 18:22:00,83.0,65.2,29.97,WNW,294,5.0,13.0,55,0.00,,,0.00,VWS V14.01,2013-06-19 16:22:00,
2013-06-19 18:28:00,83.9,66.5,29.97,WNW,295,5.0,7.0,56,0.00,,,0.00,VWS V14.01,2013-06-19 16:28:00,
2013-06-19 18:30:00,83.2,66.4,29.97,WNW,302,6.0,11.0,57,0.00,,,0.00,VWS V14.01,2013-06-19 16:30:00,
2013-06-19 18:33:00,83.1,65.8,29.97,NW,304,2.0,11.0,56,0.00,,,0.00,VWS V14.01,2013-06-19 16:33:00,
2013-06-19 18:38:00,83.8,66.4,29.97,WNW,294,6.0,9.0,56,0.00,,,0.00,VWS V14.01,2013-06-19 16:38:00,
2013-06-19 18:40:00,83.2,65.9,29.97,WNW,302,5.0,11.0,56,0.00,,,0.00,VWS V14.01,2013-06-19 16:40:00,
2013-06-19 18:43:00,83.3,66.0,29.97,WNW,296,7.0,11.0,56,0.00,,,0.00,VWS V14.01,2013-06-19 16:43:00,
2013-06-19 18:48:00,83.0,66.2,29.97,WNW,302,3.0,9.0,57,0.00,,,0.00,VWS V14.01,2013-06-19 16:48:00,
2013-06-19 18:50:00,83.6,65.7,29.97,NW,320,3.0,9.0,55,0.00,,,0.00,VWS V14.01,2013-06-19 16:50:00,
2013-06-19 18:53:00,83.6,66.3,29.97,NW,310,5.0,9.0,56,0.00,,,0.00,VWS V14.01,2013-06-19 16:53:00,
2013-06-19 18:58:00,83.7,64.8,29.97,NW,321,3.0,5.0,53,0.00,,,0.00,VWS V14.01,2013-06-19 16:58:00,
2013-06-19 19:00:00,83.9,64.9,29.97,NW,325,3.0,5.0,53,0.00,,,0.00,VWS V14.01,2013-06-19 17:00:00,
2013-06-19 19:03:00,83.8,64.9,29.97,NW,325,2.0,5.0,53,0.00,,,0.00,VWS V14.01,2013-06-19 17:03:00,
2013-06-19 19:08:00,83.7,64.8,29.97,NNW,329,4.0,5.0,53,0.00,,,0.00,VWS V14.01,2013-06-19 17:08:00,
2013-06-19 19:10:00,83.7,64.8,29.97,NNW,347,5.0,6.0,53,0.00,,,0.00,VWS V14.01,2013-06-19 17:10:00,
2013-06-19 19:13:00,83.7,64.8,29.97,NNW,342,4.0,6.0,53,0.00,,,0.00,VWS V14.01,2013-06-19 17:13:00,
2013-06-19 19:18:00,83.7,64.8,29.97,North,9,4.0,6.0,53,0.00,,,0.00,VWS V14.01,2013-06-19 17:18:00,
2013-06-19 19:20:00,83.5,64.6,29.97,North,360,2.0,6.0,53,0.00,,,0.00,VWS V14.01,2013-06-19 17:20:00,
2013-06-19 19:23:00,83.5,64.6,29.97,North,360,2.0,6.0,53,0.00,,,0.00,VWS V14.01,2013-06-19 17:23:00,
2013-06-19 19:28:00,83.4,65.0,29.97,North,5,1.0,5.0,54,0.00,,,0.00,VWS V14.01,2013-06-19 17:28:00,
2013-06-19 19:30:00,83.1,64.8,29.97,North,5,2.0,5.0,54,0.00,,,0.00,VWS V14.01,2013-06-19 17:30:00,
2013-06-19 19:33:00,83.1,64.8,29.97,North,5,2.0,5.0,54,0.00,,,0.00,VWS V14.01,2013-06-19 17:33:00,
2013-06-19 19:38:00,82.8,63.9,29.97,North,5,4.0,6.0,53,0.00,,,0.00,VWS V14.01,2013-06-19 17:38:00,
2013-06-19 19:40:00,82.4,64.1,29.97,NNE,27,6.0,7.0,54,0.00,,,0.00,VWS V14.01,2013-06-19 17:40:00,
2013-06-19 19:43:00,82.4,64.1,29.97,NNE,27,6.0,7.0,54,0.00,,,0.00,VWS V14.01,2013-06-19 17:43:00,
2013-06-19 19:48:00,81.5,64.8,29.97,NE,40,3.0,7.0,57,0.00,,,0.00,VWS V14.01,2013-06-19 17:48:00,
2013-06-19 19:50:00,81.1,64.4,29.97,NE,47,3.0,7.0,57,0.00,,,0.00,VWS V14.01,2013-06-19 17:50:00,
2013-06-19 19:53:00,81.1,64.4,29.97,NE,47,3.0,7.0,57,0.00,,,0.00,VWS V14.01,2013-06-19 17:53:00,
2013-06-19 19:58:00,81.1,64.4,29.97,NE,47,5.0,5.0,57,0.00,,,0.00,VWS V14.01,2013-06-19 17:58:00,
2013-06-19 20:00:00,80.5,63.9,29.97,NE,50,2.0,8.0,57,0.00,,,0.00,VWS V14.01,2013-06-19 18:00:00,
2013-06-19 20:03:00,80.5,63.9,29.97,NE,50,2.0,8.0,57,0.00,,,0.00,VWS V14.01,2013-06-19 18:03:00,
2013-06-19 20:08:00,80.3,63.7,29.97,NE,51,5.0,6.0,57,0.00,,,0.00,VWS V14.01,2013-06-19 18:08:00,
2013-06-19 20:10:00,80.1,64.0,29.97,NE,51,2.0,6.0,58,0.00,,,0.00,VWS V14.01,2013-06-19 18:10:00,
2013-06-19 20:13:00,80.1,64.0,29.97,NE,51,1.0,6.0,58,0.00,,,0.00,VWS V14.01,2013-06-19 18:13:00,
2013-06-19 20:18:00,80.1,63.5,29.97,NE,49,2.0,4.0,57,0.00,,,0.00,VWS V14.01,2013-06-19 18:18:00,
2013-06-19 20:20:00,80.0,63.4,29.97,NE,49,0.0,4.0,57,0.00,,,0.00,VWS V14.01,2013-06-19 18:20:00,
2013-06-19 20:23:00,80.0,63.4,29.97,NE,49,2.0,2.0,57,0.00,,,0.00,VWS V14.01,2013-06-19 18:23:00,
2013-06-19 20:28:00,80.1,61.4,29.97,North,355,3.0,8.0,53,0.00,,,0.00,VWS V14.01,2013-06-19 18:28:00,
2013-06-19 20:30:00,80.1,60.9,29.97,NW,320,3.0,8.0,52,0.00,,,0.00,VWS V14.01,2013-06-19 18:30:00,
2013-06-19 20:33:00,80.1,60.9,29.97,NW,320,3.0,3.0,52,0.00,,,0.00,VWS V14.01,2013-06-19 18:33:00,
2013-06-19 20:38:00,79.9,60.2,29.97,NW,319,0.0,4.0,51,0.00,,,0.00,VWS V14.01,2013-06-19 18:38:00,
2013-06-19 20:40:00,79.9,60.2,29.97,NW,319,0.0,4.0,51,0.00,,,0.00,VWS V14.01,2013-06-19 18:40:00,
2013-06-19 20:43:00,79.9,60.2,29.97,NW,319,0.0,4.0,51,0.00,,,0.00,VWS V14.01,2013-06-19 18:43:00,
2013-06-19 20:48:00,80.0,61.3,29.97,NW,319,0.0,1.0,53,0.00,,,0.00,VWS V14.01,2013-06-19 18:48:00,
2013-06-19 20:50:00,79.8,61.7,29.97,NNW,342,3.0,4.0,54,0.00,,,0.00,VWS V14.01,2013-06-19 18:50:00,
2013-06-19 20:53:00,79.8,61.7,29.97,NNW,342,3.0,4.0,54,0.00,,,0.00,VWS V14.01,2013-06-19 18:53:00,
2013-06-19 20:58:00,78.8,62.8,29.97,North,11,1.0,5.0,58,0.00,,,0.00,VWS V14.01,2013-06-19 18:58:00,
2013-06-19 21:00:00,78.5,62.0,29.97,North,11,2.0,5.0,57,0.00,,,0.00,VWS V14.01,2013-06-19 19:00:00,
2013-06-19 21:03:00,78.5,62.0,29.97,North,11,2.0,5.0,57,0.00,,,0.00,VWS V14.01,2013-06-19 19:03:00,
2013-06-19 21:08:00,78.2,63.2,29.97,NNE,31,5.0,5.0,60,0.00,,,0.00,VWS V14.01,2013-06-19 19:08:00,
2013-06-19 21:10:00,77.9,63.8,29.97,NE,53,3.0,8.0,62,0.00,,,0.00,VWS V14.01,2013-06-19 19:10:00,
2013-06-19 21:13:00,77.9,63.8,29.97,NE,53,2.0,3.0,62,0.00,,,0.00,VWS V14.01,2013-06-19 19:13:00,
2013-06-19 21:18:00,77.9,63.8,29.98,NE,53,0.0,3.0,62,0.00,,,0.00,VWS V14.01,2013-06-19 19:18:00,
2013-06-19 21:20:00,77.7,64.1,29.98,NE,53,0.0,3.0,63,0.00,,,0.00,VWS V14.01,2013-06-19 19:20:00,
2013-06-19 21:23:00,77.7,64.1,29.98,NE,53,0.0,3.0,63,0.00,,,0.00,VWS V14.01,2013-06-19 19:23:00,
2013-06-19 21:28:00,77.8,64.2,29.98,NE,53,3.0,3.0,63,0.00,,,0.00,VWS V14.01,2013-06-19 19:28:00,
2013-06-19 21:30:00,77.9,65.2,29.98,NE,53,1.0,4.0,65,0.00,,,0.00,VWS V14.01,2013-06-19 19:30:00,
2013-06-19 21:33:00,77.9,65.2,29.98,NE,53,1.0,4.0,65,0.00,,,0.00,VWS V14.01,2013-06-19 19:33:00,
2013-06-19 21:38:00,77.8,66.0,29.98,ENE,68,2.0,7.0,67,0.00,,,0.00,VWS V14.01,2013-06-19 19:38:00,
2013-06-19 21:40:00,77.8,66.0,29.98,ENE,67,2.0,7.0,67,0.00,,,0.00,VWS V14.01,2013-06-19 19:40:00,
2013-06-19 21:43:00,77.8,66.0,29.98,ENE,67,2.0,7.0,67,0.00,,,0.00,VWS V14.01,2013-06-19 19:43:00,
2013-06-19 21:48:00,77.8,65.5,29.99,ENE,57,4.0,7.0,66,0.00,,,0.00,VWS V14.01,2013-06-19 19:48:00,
2013-06-19 21:50:00,77.8,65.5,29.98,ENE,57,2.0,7.0,66,0.00,,,0.00,VWS V14.01,2013-06-19 19:50:00,
2013-06-19 21:53:00,77.8,65.5,29.98,ENE,57,2.0,7.0,66,0.00,,,0.00,VWS V14.01,2013-06-19 19:53:00,
2013-06-19 21:58:00,77.8,65.1,29.99,ENE,57,2.0,4.0,65,0.00,,,0.00,VWS V14.01,2013-06-19 19:58:00,
2013-06-19 22:00:00,77.9,64.8,29.98,ENE,57,1.0,5.0,64,0.00,,,0.00,VWS V14.01,2013-06-19 20:00:00,
2013-06-19 22:03:00,77.9,64.8,29.98,ENE,57,1.0,5.0,64,0.00,,,0.00,VWS V14.01,2013-06-19 20:03:00,
2013-06-19 22:08:00,77.2,65.0,29.99,ENE,57,0.0,3.0,66,0.00,,,0.00,VWS V14.01,2013-06-19 20:08:00,
2013-06-19 22:10:00,76.7,64.5,29.99,ENE,57,0.0,3.0,66,0.00,,,0.00,VWS V14.01,2013-06-19 20:10:00,
2013-06-19 22:13:00,76.7,64.5,29.99,ENE,57,0.0,3.0,66,0.00,,,0.00,VWS V14.01,2013-06-19 20:13:00,
2013-06-19 22:18:00,76.6,64.4,29.99,ENE,57,0.0,0.0,66,0.00,,,0.00,VWS V14.01,2013-06-19 20:18:00,
2013-06-19 22:20:00,76.6,64.0,29.99,ENE,57,0.0,0.0,65,0.00,,,0.00,VWS V14.01,2013-06-19 20:20:00,
2013-06-19 22:23:00,76.6,64.0,29.99,ENE,57,0.0,0.0,65,0.00,,,0.00,VWS V14.01,2013-06-19 20:23:00,
2013-06-19 22:28:00,76.9,63.8,29.99,ENE,57,0.0,0.0,64,0.00,,,0.00,VWS V14.01,2013-06-19 20:28:00,
2013-06-19 22:30:00,77.0,62.5,29.98,ENE,57,0.0,0.0,61,0.00,,,0.00,VWS V14.01,2013-06-19 20:30:00,
2013-06-19 22:33:00,77.0,62.5,29.99,ENE,57,0.0,0.0,61,0.00,,,0.00,VWS V14.01,2013-06-19 20:33:00,
2013-06-19 22:38:00,77.1,61.7,29.98,ENE,57,0.0,0.0,59,0.00,,,0.00,VWS V14.01,2013-06-19 20:38:00,
2013-06-19 22:40:00,77.3,61.4,29.99,ENE,57,0.0,0.0,58,0.00,,,0.00,VWS V14.01,2013-06-19 20:40:00,
2013-06-19 22:43:00,77.3,61.4,29.98,ENE,57,0.0,0.0,58,0.00,,,0.00,VWS V14.01,2013-06-19 20:43:00,
2013-06-19 22:48:00,77.4,61.0,29.98,ENE,57,0.0,0.0,57,0.00,,,0.00,VWS V14.01,2013-06-19 20:48:00,
2013-06-19 22:50:00,77.5,60.6,29.99,ENE,57,0.0,0.0,56,0.00,,,0.00,VWS V14.01,2013-06-19 20:50:00,
2013-06-19 22:53:00,77.5,60.6,29.99,ENE,57,0.0,0.0,56,0.00,,,0.00,VWS V14.01,2013-06-19 20:53:00,
2013-06-19 22:58:00,77.3,60.4,29.98,ENE,57,0.0,0.0,56,0.00,,,0.00,VWS V14.01,2013-06-19 20:58:00,
2013-06-19 23:00:00,77.8,60.4,29.98,ENE,57,0.0,0.0,55,0.00,,,0.00,VWS V14.01,2013-06-19 21:00:00,
2013-06-19 23:03:00,77.8,60.4,29.98,ENE,57,0.0,0.0,55,0.00,,,0.00,VWS V14.01,2013-06-19 21:03:00,
2013-06-19 23:08:00,77.7,59.8,29.98,ENE,57,0.0,0.0,54,0.00,,,0.00,VWS V14.01,2013-06-19 21:08:00,
2013-06-19 23:10:00,77.3,60.4,29.98,ENE,57,0.0,0.0,56,0.00,,,0.00,VWS V14.01,2013-06-19 21:10:00,
2013-06-19 23:13:00,77.3,60.4,29.98,ENE,57,0.0,0.0,56,0.00,,,0.00,VWS V14.01,2013-06-19 21:13:00,
2013-06-19 23:18:00,77.2,60.3,29.98,ENE,57,0.0,0.0,56,0.00,,,0.00,VWS V14.01,2013-06-19 21:18:00,
2013-06-19 23:20:00,77.3,59.9,29.98,ENE,57,0.0,0.0,55,0.00,,,0.00,VWS V14.01,2013-06-19 21:20:00,
2013-06-19 23:23:00,77.3,59.9,29.98,ENE,57,0.0,0.0,55,0.00,,,0.00,VWS V14.01,2013-06-19 21:23:00,
2013-06-19 23:28:00,77.3,60.4,29.98,ENE,57,0.0,0.0,56,0.00,,,0.00,VWS V14.01,2013-06-19 21:28:00,
2013-06-19 23:30:00,77.3,60.4,29.98,ENE,57,0.0,0.0,56,0.00,,,0.00,VWS V14.01,2013-06-19 21:30:00,
2013-06-19 23:33:00,77.3,60.4,29.98,ENE,57,0.0,0.0,56,0.00,,,0.00,VWS V14.01,2013-06-19 21:33:00,
2013-06-19 23:38:00,77.5,60.1,29.98,ENE,57,0.0,0.0,55,0.00,,,0.00,VWS V14.01,2013-06-19 21:38:00,
2013-06-19 23:40:00,77.5,60.1,29.98,ENE,57,0.0,0.0,55,0.00,,,0.00,VWS V14.01,2013-06-19 21:40:00,
2013-06-19 23:43:00,77.5,60.1,29.98,ENE,57,0.0,0.0,55,0.00,,,0.00,VWS V14.01,2013-06-19 21:43:00,
2013-06-19 23:48:00,77.4,60.0,29.98,ENE,57,0.0,0.0,55,0.00,,,0.00,VWS V14.01,2013-06-19 21:48:00,
2013-06-19 23:50:00,77.4,60.0,29.97,ENE,57,0.0,0.0,55,0.00,,,0.00,VWS V14.01,2013-06-19 21:50:00,
2013-06-19 23:53:00,77.4,60.0,29.97,ENE,57,0.0,0.0,55,0.00,,,0.00,VWS V14.01,2013-06-19 21:53:00,
2013-06-19 23:58:00,77.6,59.7,29.97,ENE,57,0.0,0.0,54,0.00,,,0.00,VWS V14.01,2013-06-19 21:58:00,